Showing default

ICEYE-X13, 48916

Orbit data source: Space-Track

ICEYE-X13, 48916 is a payload satellite owned by ICEYE (FI) in SSO that was launched on Wed, 30 Jun 2021 UTC via an FALCON 9 launch vehicle from the Air Force Eastern Test Range (AFETR). Payloads include a variety of satellites, spacecraft, and rockets equipped with specific instruments for various scientific and technological missions. These include communications satellites like Starlink; space stations such as the ISS; scientific satellites like the Hubble; Earth observation satellites from companies like Planet Labs, Umbra, and HawkEye 360; GPS; miniature CubeSats for education and research; and military/defense satellites.

Not visible in the next 10 days
ICEYE-X13 details
Identifier
48916, 2021-059AP
Orbit
SSO
Last TLE update5 hours ago
Origin
Flag of FIICEYE (FI / FIN)
ManufacturerICEYE
MissionOperational Commercial Radar Imaging
Bus & MotorICEYE, Unknown motor
Mass80 kg wet, 80 kg dry
Launch date (UTC)
2021-06-30 (4 years ago)
Launch vehicle
FALCON 9
Launch site
Air Force Eastern Test Range (AFETR)
Object type
Payload
Rocket body
Debris
Shape & HBRBox + 1 Pan, 3.25 m
Radar Cross Section1.837 m², Medium (>0.1 m² and < 1m²)

Expand to show TLE details & history

TLE from 5 hours ago
0 ICEYE-X13
1 48916U 21059AP  25015.12198946  .00041540  00000-0  93434-3 0  9998
2 48916  97.6448 168.5158 0003220 101.6288 258.5320 15.43201369197124
Epoch: 2025-01-15T02:55Z
Definitive object data (Epoch: 2025-01-15T02:55:39.889Z)
Latitude-0.00007°
Longitude9.78074°
Altitude440.22 km
Speed7.648 km/s
True Right ascension11h 14m 03s
True Declination0° 00' 00"
Sunlit
Object was in full shadow at TLE epoch
Visualization TLE readout
Latitude16.12196°
Longitude7.7768°
Altitude438.855 km
Speed7.65 km/s
Apparent Right ascension14h 19m 39s
Apparent Declination-26° 42' 37"
Sunlit
Object is in full shadow
Visualization observer readout
Local Sidereal Time08:19:33
Azimuth111.088° ESE
Elevation-16.782°
Doppler factor1
Orbital elements
Apogee altitude435.807 km
Perigee altitude431.42 km
Semi-major axis6,811.751 km
Eccentricity0.000322
Inclination97.6448°
RAAN168.5158°
Arg. of periapsis101.6288°
True anomaly258.49584°
Mean anomaly258.532°
Eccentric anomaly258.51392°
Mean motion3.8606 °/min
BSTAR0.00093434
Orbital period93.25 mins
Loading maneuver chart data...
Loading historical data...
Loading historical data...
Loading historical data...
Loading historical data...
Loading historical data...
Loading historical data...
Loading historical data...

ICEYE-X13 Visibility forecast

Observer location: undefined°, undefined

ICEYE-X13 is not visible in the next 10 days
Span
Click to sort rows by Start time (UTC) header in descending order
Start Az.
Max El. time (UTC)
Max El. Az.
Max El.
End time (UTC)
End Az.
|